This demonstration page uses our WeatherBlox Daily Observations layout. Learn more.

Left ArrowRight Arrow

40.92501, -98.34201

Hourly Observations for August 27, 2020

Temp ( °F °C ) Dew Point ( °F °C ) Humidity (%) Winds ( mph kmh ) Pressure ( in mb ) Visibility ( mi km ) Precip ( " mm )
12:53 am 00:53 Clear 74 23.3 60 15.6 62 62 S 9 15 29.81 1009 10 16 0.00 0.00
1:53 am 01:53 Clear 76 24.4 59 15 56 56 S 10 17 29.81 1009 10 16 0.00 0.00
2:53 am 02:53 Clear 76 24.4 59 15 56 56 SSW 13 20 29.79 1009 10 16 0.00 0.00
3:53 am 03:53 Clear 75 23.9 60 15.6 60 60 S 14 22 29.78 1008 10 16 0.00 0.00
4:53 am 04:53 Clear 73 22.8 62 16.7 69 69 S 12 19 29.78 1008 10 16 0.00 0.00
5:53 am 05:53 Clear 73 22.8 65 18.3 76 76 SSW 9 15 29.79 1009 10 16 0.00 0.00
6:53 am 06:53 Clear 72 22.2 66 18.9 82 82 SSW 8 13 29.80 1009 10 16 0.00 0.00
7:53 am 07:53 Sunny 73 22.8 66 18.9 79 79 SW 6 9 29.81 1010 10 16 0.00 0.00
8:53 am 08:53 Sunny 76 24.4 67 19.4 74 74 SSW 6 9 29.82 1010 10 16 0.00 0.00
9:53 am 09:53 Sunny 79 26.1 66 18.9 65 65 SSW 7 11 29.83 1010 10 16 0.00 0.00
10:53 am 10:53 Sunny 84 28.9 66 18.9 55 55 SSW 10 17 29.83 1010 10 16 0.00 0.00
11:53 am 11:53 Sunny 88 31.1 65 18.3 46 46 SW 9 15 29.82 1010 10 16 0.00 0.00
12:53 pm 12:53 Sunny 92 33.3 64 17.8 40 40 SW 14 22 29.81 1009 10 16 0.00 0.00
1:53 pm 13:53 Sunny 92 33.3 65 18.3 41 41 VRB 3 6 29.80 1009 10 16 0.00 0.00
2:53 pm 14:53 Sunny 94 34.4 64 17.8 37 37 S 13 20 29.78 1009 10 16 0.00 0.00
3:53 pm 15:53 Sunny 95 35 66 18.9 39 39 S 15 24 29.77 1008 10 16 0.00 0.00
4:53 pm 16:53 Sunny 95 35 64 17.8 36 36 S 14 22 29.76 1008 10 16 0.00 0.00
5:53 pm 17:53 Sunny 92 33.3 71 21.7 51 51 SE 10 17 29.76 1008 10 16 0.00 0.00
6:53 pm 18:53 Sunny 88 31.1 72 22.2 59 59 ESE 9 15 29.76 1008 10 16 0.00 0.00
7:53 pm 19:53 Sunny 84 28.9 71 21.7 65 65 SE 8 13 29.76 1008 10 16 0.00 0.00
8:53 pm 20:53 Clear 82 27.8 70 21.1 67 67 SSE 8 13 29.77 1008 10 16 0.00 0.00
9:53 pm 21:53 Clear 81 27.2 70 21.1 69 69 SSE 9 15 29.77 1008 10 16 0.00 0.00
10:53 pm 22:53 Clear 79 26.1 69 20.6 72 72 S 9 15 29.76 1008 10 16 0.00 0.00
11:53 pm 23:53 Clear 76 24.4 68 20 77 77 S 10 17 29.75 1007 10 16 0.00 0.00

Powered by AerisWeather